Current weather by "City, St" or "zip code"  
 

Current Conditions: Enid, Enid Woodring Regional Airport, OK

Fair


37.0 F

Last Updated on Oct 23 2020, 9:55 pm CDT
Humidity: 81%
Wind Speed: NE 10.4 mph
Barometer 30.33 in
Dewpoint: 32.0 F
Visibility: 10.00 mi
Precip: --
Heat Index: NA
Wind Chill: 30 F
Current conditions at:

Enid, Enid Woodring Regional Airport, OK (KWDG)

Lat: 36.37917 Lon: 97.79111

Local Radar Image active severe weather and emergency alerts image image weather storm and storm spotter reports image weather observation monitoring service image
Local
Radar
Active
Alerts
Storm Reports Obs
Monitoring

Sign-up For Email & Text Message Weather Alert Notification Services



Advertise Here

Observation History for Enid, Enid Woodring Regional Airport, OK


Time Wind
(mph)
Vis
(mi)
Weather Precip (in) Temperature (F) Relative
Humidity
Wind
Chill
(F)
Heat
Index
(F)
Pressure
Air Dwpt altimeter
(in)
sea level
(mb)
Rmks
9:55 pm CDT NE 10.4 10.00 Fair -- 37.0 32.0 81% 30 NA 30.33 M
8:45 pm CDT N 9.2 10.00 Clear -- 39.0 32.0 75% 33 NA 30.33 M
7:48 pm CDT NE 12.7 10.00 Clear -- 43.0 32.0 66% 36 NA 30.32 M
6:49 pm CDT NE 12.7 10.00 Clear -- 45.0 32.0 61% 39 NA 30.30 M
5:46 pm CDT N 18.4 G 23.0 10.00 Partly Cloudy -- 48.0 32.0 54% 41 NA 30.29 M
4:57 pm CDT N 19.6 G 26.5 10.00 Partly Cloudy -- 50.0 32.0 50% 44 NA 30.29 M
3:49 pm CDT N 18.4 G 26.5 10.00 Partly Cloudy -- 50.0 32.0 50% 44 NA 30.29 M
2:45 pm CDT N 24.2 G 28.8 10.00 Overcast and Breezy -- 46.0 32.0 57% 38 NA 30.30 M
1:54 pm CDT N 21.9 G 26.5 10.00 Overcast and Breezy -- 46.0 33.8 62% 38 NA 30.30 M
12:55 pm CDT N 23.0 G 31.1 10.00 Overcast and Breezy -- 45.0 33.8 66% 36 NA 30.31 M
11:45 am CDT N 20.7 G 28.8 10.00 Overcast and Breezy -- 41.0 33.8 76% 32 NA 30.33 M
10:45 am CDT N 24.2 G 31.1 10.00 Overcast and Breezy -- 41.0 33.8 76% 31 NA 30.32 M
9:45 am CDT N 24.2 G 32.2 10.00 Overcast and Breezy -- 39.0 35.6 87% 28 NA 30.29 M
8:45 am CDT N 26.5 G 32.2 5.00 Fog/Mist and Windy -- 37.0 35.6 93% 25 NA 30.25 M
7:45 am CDT N 24.2 G 34.5 5.00 Fog/Mist and Breezy -- 37.0 35.6 93% 26 NA 30.22 M
6:45 am CDT N 26.5 G 35.7 5.00 Fog/Mist and Windy -- 37.0 35.6 93% 25 NA 30.17 M
5:55 am CDT N 21.9 G 27.6 5.00 Fog/Mist and Breezy -- 39.0 37.4 93% 29 NA 30.14 M
4:55 am CDT N 26.5 G 32.2 3.00 Light Drizzle and Windy -- 41.0 37.4 87% 30 NA 30.11 M
3:55 am CDT N 26.5 G 34.5 10.00 Overcast and Windy -- 41.0 37.4 87% 30 NA 30.07 M
2:55 am CDT N 28.8 G 38.0 10.00 Overcast and Windy -- 45.0 35.6 71% 35 NA 30.03 M
1:55 am CDT N 29.9 10.00 Overcast and Windy -- 46.0 39.2 76% 37 NA 30.00 M
12:55 am CDT N 29.9 G 35.7 10.00 Overcast and Windy -- 50.0 41.0 71% 42 NA 29.96 M
11:55 pm CDT N 24.2 G 28.8 10.00 Thunderstorm in Vicinity and Breezy -- 52.0 44.6 77% 46 NA 29.93 M
10:55 pm CDT N 19.6 10.00 Thunderstorm in Vicinity -- 55.0 48.2 77% 50 NA 29.91 M

Regional Weather Observation


Enid, Enid Woodring Regional Airport, OK (KWDG)

Fair
37.0 F

Blackwell-Tonkawa Municipal Airport, OK (KBKN)

Overcast
43.0 F

Alva, Alva Regional Airport, OK (KAVK)

Mostly Cloudy
39.0 F

Ponca City, Ponca City Municipal Airport, OK (KPNC)

Overcast
43.0 F

Stillwater, Stillwater Regional Airport, OK (KSWO)

Overcast
45.0 F

Medicine Lodge, Medicine Lodge, KS (KP28)

NULL
34.0 F